Regional Weather Roundup
Issued by NWS Upton, NY

Home | Current Version | Previous Version | Text Only | Print | Product List | Glossary On
Versions: 1 2 3 4 5 6 7 8 9 10 11 12 13 14 15 16 17 18 19 20 21 22 23 24 25 26 27 28 29 30 31 32 33 34 35 36 37 38 39 40 41 42 43 44 45 46 47 48 49 50
000
ASUS41 KOKX 040005
RWROKX

REGIONAL WEATHER ROUNDUP
NATIONAL WEATHER SERVICE NEW YORK NY
700 PM EST TUE MAR 03 2015

NOTE: "FAIR" INDICATES FEW OR NO CLOUDS BELOW 12,000 FEET WITH NO
SIGNIFICANT WEATHER AND/OR OBSTRUCTIONS TO VISIBILITY.

NYZ071-072-176-178-NJZ106-104-040100-
NEW YORK CITY METRO AREA


CITY           SKY/WX    TMP DP  RH WIND       PRES   REMARKS
CENTRAL PARK   MIX PCPN  32  27  81 S9        30.10F WCI  24
LAGUARDIA APRT LGTSLEET  32  29  88 S10       30.09F VSB 3/4 WCI  24
KENNEDY INTL   LGTSLEET  33  29  85 S12       30.12F FOG     WCI  24
NEWARK/LIBERTY SLEET     29  27  92 S6        30.11F FOG     WCI  23
BRNX BOT. GARD   N/A     32  32 100 SE6       30.08F WCI  26
TETERBORO      FRZ RAIN  28  27  93 S9        30.08F WCI  20
$$

NYZ177-179-078>081-040100-
LONG ISLAND NEW YORK

CITY           SKY/WX    TMP DP  RH WIND       PRES   REMARKS
FARMINGDALE    MIX PCPN  30  28  92 S8        30.10F VSB 1/2 WCI  22
ISLIP          LGT SNOW  30  26  85 S6        30.11F VSB 3/4 WCI  24
SHIRLEY        LGT SNOW  31  27  85 S8        30.12F VSB 1   WCI  23
WESTHAMPTON    LGT SNOW  32  26  78 S8        30.13F WCI  25
MONTAUK POINT    N/A     32  28  85 S6        30.15F WCI  26
$$

NYZ052-065-067-040100-
HUDSON VALLEY

CITY           SKY/WX    TMP DP  RH WIND       PRES   REMARKS
WHITE PLAINS   FRZ RAIN  25  23  92 SE6       30.06F VSB 1/2 WCI  18
NEWBURGH       NOT AVBL
MONTGOMERY     MIX PCPN  27  23  85 S8        30.00F FOG     WCI  19
POUGHKEEPSIE   MIX PCPN  25  21  85 SE8       30.04F FOG     WCI  16
ALBANY         LGT SNOW  24  18  77 S21G29    29.95F WCI   9
$$

NJZ001-105-106-008-010-013-015-019>022-104-040100-
NEW JERSEY

CITY           SKY/WX    TMP DP  RH WIND       PRES   REMARKS
NEWARK/LIBERTY SLEET     29  27  92 S6        30.11F FOG     WCI  23
TETERBORO      FRZ RAIN  28  27  93 S9        30.08F WCI  20
CALDWELL       MIX PCPN  28  23  81 S7        30.08F WCI  21
MORRISTOWN     LGT SNOW  28  25  86 S7        30.08F WCI  21
SOMERVILLE     MIX PCPN  28  25  88 SE5       30.06F FOG     WCI  23
SUSSEX         MIX PCPN  26  22  84 SW7       30.00F FOG     WCI  18
ANDOVER          N/A     25  22  88 VRB6      30.00F WCI  18
TRENTON        FRZ RAIN  30  27  88 SE12      30.07F WCI  20
MILLVILLE      MIX PCPN  32  31  96 SE5       30.09F FOG     WCI  27
ATLANTIC CITY  CLOUDY    32  31  96 CALM      30.11F FOG
WRIGHTSTOWN    FRZ RAIN  32  31  99 S3        30.06F
TOMS RIVER     CLOUDY    32  30  93 CALM      30.13F
BELMAR         CLOUDY    30  27  86 CALM      30.11F
$$

PAZ047>061-062-071-040100-
EASTERN PENNSYLVANIA

CITY           SKY/WX    TMP DP  RH WIND       PRES   REMARKS
PHILADELPHIA   FRZ RAIN  32  29  88 SE7       30.10F FOG     WCI  26
ALLENTOWN      SLEET     27  23  85 S7        30.02F FOG     WCI  19
SCRANTON       MIX PCPN  26  19  74 S10G20    29.91F WCI  16
$$

CTZ002-004>006-009-010-012-RIZ004-006-007-MAZ004-011-015-040100-
SOUTHERN NEW ENGLAND
 IN CT

CITY           SKY/WX    TMP DP  RH WIND       PRES   REMARKS
BRADLEY INTL   LGT SNOW  25  20  81 S12       30.09F VSB 3/4 WCI  14
HARTFORD       LGT SNOW  23  21  92 S9        30.12F VSB 3/4 WCI  13
DANBURY        MIX PCPN  23  18  81 S8        30.07F WCI  14
WTRBRY/OXFORD  LGT SNOW  21  12  68 S9        30.07F VSB 1   WCI  11
BRIDGEPORT     LGT SNOW  25  24  96 SE8       30.13F FOG     WCI  16
MERIDEN        LGT SNOW  24  21  88 S6        30.12F VSB 1   WCI  17
NEW HAVEN      LGT SNOW  26  23  88 SE7       30.12F VSB 3/4 WCI  18
CHESTER        LGT SNOW  27  25  93 S7        30.11F VSB 3/4 WCI  19
GROTON         LGT SNOW  27  27 100 S10       30.14F FOG     WCI  17
WILLIMANTIC    LGT SNOW  23  19  85 S7        30.13F FOG     WCI  15

 IN RI

CITY           SKY/WX    TMP DP  RH WIND       PRES   REMARKS
PROVIDENCE     LGT SNOW  25  22  88 S8        30.14F VSB 1   WCI  16
BLOCK ISLAND   CLOUDY    30  27  86 S16       30.14F WCI  19
WESTERLY       LGT SNOW  29  27  92 S9        30.15F VSB 1   WCI  20

 IN MA

CITY           SKY/WX    TMP DP  RH WIND       PRES   REMARKS
BOSTON         CLOUDY    27  16  63 S23       30.13F WCI  12
WORCESTER      LGT SNOW  20  16  84 S12       30.03F VSB 1   WCI   8
WESTFIELD      LGT SNOW  23  19  85 S15       30.06F VSB 1   WCI  10
PROVINCETOWN   CLOUDY    28  18  64 S16G24    30.17F WCI  17
NANTUCKET      CLOUDY    29  18  63 S17       30.21F WCI  17
$$

ANZ330-335-338-340-345-350-353-355-040100-
COASTAL MARINE OBSERVATIONS


STATION/POSITION TIME  SKY/WX   TEMP    WIND        PRES    VSBY  WAVE
                                AIR SEA DIR/SP/G                  HT/PER
                 (UTC)          (F)     (DEG/KT/KT) (MB)    (MI)  (FT/S)
NY HARB ENTRANCE 0000            33 38  160/ 10/ 12 1019.7          2/ 3
4S FIRE IS       NOT AVBL
20S FIRE ISLAND  2300               36              1021.5          2/10
23SW MTP         0000                                 N/A           2/ 3
HUDSON CANYON    NOT AVBL
EXECUTION ROCKS  NOT AVBL
WESTERN LI SOUND NOT AVBL
CENTRAL LI SOUND NOT AVBL
EASTERN LI SOUND NOT AVBL
ROBBINS REEF     2300            29     190/  8/  9 1019.1
$$


>>>>>>>>>>>>>>>>>>>>>>>>>>>> KEY <<<<<<<<<<<<<<<<<<<<<<<<<<<
>                                                          <
>     SKY/WX - SKY CONDITION/PRESENT WEATHER               <
>     TMP    - TEMPERATURE IN FAHRENHEIT                   <
>     DP     - DEWPOINT IN FAHRENHEIT                      <
>     RH     - RELATIVE HUMIDITY IN PERCENT                <
>     WIND   - DIRECTION AND SPEED IN MPH                  <
>     PRES   - MEAN SEA LEVEL PRESSURE IN INCHES OF HG     <
>     WCI    - WIND CHILL INDEX                            <
>     VSB    - VISIBILITY IN MILES                         <
>     HX     - HEAT INDEX                                  <
>     TC     - TEMPERATURE IN CELSIUS                      <
>     VRB    - VARIABLE WIND DIRECTION                     <
>                                                          <
>>>>>>>>>>>>>>>>>>>>>>>>>>>> KEY <<<<<<<<<<<<<<<<<<<<<<<<<<<





USA.gov is the U.S. government's official web portal to all federal, state and local government web resources and services.